TimeEDT,TemperatureF,Dew PointF,Humidity,Sea Level PressureIn,VisibilityMPH,Wind Direction,Wind SpeedMPH,Gust SpeedMPH,PrecipitationIn,Events,Conditions,WindDirDegrees,DateUTC
12:54 AM,48.9,46.9,93,30.08,10.0,Calm,Calm,-,N/A,,Clear,0,2013-09-30 04:54:00
1:54 AM,46.9,46.0,97,30.08,10.0,Calm,Calm,-,N/A,,Clear,0,2013-09-30 05:54:00
2:54 AM,46.9,46.0,97,30.07,10.0,NNW,3.5,-,N/A,,Clear,330,2013-09-30 06:54:00
3:54 AM,46.9,45.0,93,30.07,10.0,Calm,Calm,-,N/A,,Clear,0,2013-09-30 07:54:00
4:54 AM,45.0,44.1,97,30.06,10.0,NW,5.8,-,N/A,,Clear,320,2013-09-30 08:54:00
5:54 AM,45.0,45.0,100,30.06,10.0,Calm,Calm,-,N/A,,Clear,0,2013-09-30 09:54:00
6:54 AM,46.0,45.0,96,30.07,10.0,Calm,Calm,-,N/A,,Clear,0,2013-09-30 10:54:00
7:54 AM,50.0,48.9,96,30.08,9.0,NNW,5.8,-,N/A,,Clear,340,2013-09-30 11:54:00
8:54 AM,57.0,53.1,87,30.08,10.0,North,6.9,-,N/A,,Clear,10,2013-09-30 12:54:00
9:54 AM,64.0,55.0,73,30.08,10.0,North,8.1,-,N/A,,Clear,10,2013-09-30 13:54:00
10:54 AM,68.0,55.0,63,30.08,10.0,NNE,4.6,-,N/A,,Clear,20,2013-09-30 14:54:00
11:54 AM,69.1,53.1,57,30.06,10.0,Variable,6.9,-,N/A,,Overcast,0,2013-09-30 15:54:00
12:54 PM,72.0,50.0,46,30.04,10.0,NNW,4.6,-,N/A,,Mostly Cloudy,340,2013-09-30 16:54:00
1:54 PM,73.0,51.1,46,30.03,10.0,Variable,6.9,-,N/A,,Mostly Cloudy,0,2013-09-30 17:54:00
2:54 PM,71.1,48.9,45,30.02,10.0,NNW,9.2,-,N/A,,Mostly Cloudy,330,2013-09-30 18:54:00
3:54 PM,68.0,53.1,59,30.01,10.0,East,6.9,-,N/A,,Scattered Clouds,80,2013-09-30 19:54:00
4:54 PM,68.0,53.1,59,30.01,10.0,East,11.5,-,N/A,,Overcast,100,2013-09-30 20:54:00
5:54 PM,64.9,55.0,70,30.02,10.0,ESE,6.9,-,N/A,,Clear,120,2013-09-30 21:54:00
6:54 PM,61.0,55.0,81,30.02,10.0,ESE,3.5,-,N/A,,Clear,120,2013-09-30 22:54:00
7:54 PM,60.1,55.0,83,30.03,10.0,Calm,Calm,-,N/A,,Clear,0,2013-09-30 23:54:00
8:54 PM,54.0,51.1,90,30.04,10.0,Calm,Calm,-,N/A,,Clear,0,2013-10-01 00:54:00
9:28 PM,50.0,50.0,100,30.04,1.5,Calm,Calm,-,N/A,,Clear,0,2013-10-01 01:28:00
9:38 PM,51.1,48.9,92,30.04,4.0,Calm,Calm,-,N/A,,Clear,0,2013-10-01 01:38:00
9:54 PM,52.0,51.1,97,30.04,10.0,Calm,Calm,-,N/A,,Clear,0,2013-10-01 01:54:00
10:54 PM,52.0,50.0,93,30.05,10.0,Calm,Calm,-,N/A,,Clear,0,2013-10-01 02:54:00
11:08 PM,48.9,46.9,93,30.05,2.5,Calm,Calm,-,N/A,,Clear,0,2013-10-01 03:08:00
11:16 PM,48.9,48.0,97,30.05,10.0,Calm,Calm,-,N/A,,Clear,0,2013-10-01 03:16:00
11:54 PM,50.0,48.9,96,30.04,10.0,Calm,Calm,-,N/A,,Clear,0,2013-10-01 03:54:00